Other Public Products
Issued by NWS Grand Forks, ND

Home | Current Version | Previous Version | Text Only | Print | Product List | Glossary On
Versions: 1 2 3 4 5 6 7 8 9 10 11 12 13 14 15 16 17 18 19 20 21 22 23 24 25 26 27 28 29 30 31 32 33 34 35 36 37 38 39 40 41 42 43 44 45 46 47 48 49 50
000
FPUS83 KFGF 192131
OPUFGF
PRAIRIE TO PINES WEATHER ROUNDUP
NATIONAL WEATHER SERVICE EASTERN NORTH DAKOTA/GRAND FORKS ND
300 PM CST SUN FEB 19 2017

 **SATELLITE DATA USED TO AUGMENT SKY COVER AT AUTOMATED STATIONS**
 *****  WEATHER ACROSS EASTERN NORTH DAKOTA  *****

CITY           SKY/WX    TMP DP  RH WIND       PRES   REMARKS
GRAND FORKS    PTSUNNY   46  33  60 SE17      29.65F
GRAND FORKS AF FAIR      43  36  77 SE12      29.64F
GRAND CITY NWS NOT AVBL
BUXTON         NOT AVBL
DEVILS LAKE    FAIR      40  36  86 E22       29.55F
FARGO          FAIR      55  44  66 SE23G32   29.63F
WAHPETON ARPT  FAIR      54  45  71 SE22G30   29.64F
$$

 *****  WEATHER ACROSS CENTRAL AND WESTERN NORTH DAKOTA  *****

CITY           SKY/WX    TMP DP  RH WIND       PRES   REMARKS
JAMESTOWN      FAIR      46  41  82 SE20      29.53F
BISMARCK       FAIR      40  35  83 SE9       29.50F
MINOT          FAIR      40  35  83 E9        29.50F
MINOT AFB      FAIR      36  33  88 E10       29.50F
GARRISON         N/A     41  35  79 E10       29.46F
WILLISTON      CLOUDY    37  32  82 E7        29.47F
DICKINSON      FAIR      50  37  61 S12       29.42F
HETTINGER      FAIR      64  36  35 S14       29.45S
$$

 *****  OTHER OBSERVATIONS NORTHEAST NORTH DAKOTA  *****

CITY           SKY/WX    TMP DP  RH WIND       PRES   REMARKS
WALHALLA       NOT AVBL
LANGDON        NOT AVBL
CAVALIER       FAIR      37  32  81 SE3       29.67F
GRAFTON        FAIR      37  36  93 E12       29.68F
CANDO          NOT AVBL
FORT TOTTEN      N/A     43  37  78 SE14      29.95S
ROLLA          FAIR      36  36 100 E7        29.60F
RUGBY            N/A     36  36 100 E14       29.55R
 ***** THE ABOVE OBSERVATIONS ARE NON NWS ARE NOT QUALITY
        CONTROLLED AND MAY MIS-REPORT RAIN FOR SNOW...
$$

 *****  OTHER OBSERVATIONS SOUTHEAST NORTH DAKOTA *****

CITY           SKY/WX    TMP DP  RH WIND       PRES   REMARKS
COOPERSTOWN    FAIR      45  41  87 SE22      29.57F
VALLEY CITY    FAIR      48  48 100 SE15G21   29.58F
OAKES          NOT AVBL
GWINNER        FAIR      55  48  76 SE22      29.59S
SHEYENNE NWR     N/A     55  46  72 SE14      29.95S
BUFFALO        NOT AVBL
WYNDMERE         N/A     55  52  88 SE20        N/A
 ***** THE ABOVE OBSERVATIONS ARE NON NWS ARE NOT QUALITY
       CONTROLLED AND MAY MIS-REPORT RAIN FOR SNOW...
$$

  *****  WEATHER ACROSS NORTHERN MINNESOTA  *****

CITY           SKY/WX    TMP DP  RH WIND       PRES   REMARKS
FLAG ISLAND    FAIR      43  28  56 E12       29.83F
WARROAD        FAIR      39  34  81 E12G18    29.80F
ROSEAU         FAIR      37  32  81 E7        29.78S
HALLOCK        FAIR      43  34  70 E17       29.68F
THF RVR FALLS  FAIR      41  33  73 E22       29.71F
HALSTAD          N/A     51  43  74 SE21        N/A
FOSSTON        FAIR      46  34  61 SE17G25   29.70F
BAUDETTE       PTSUNNY   39  30  70 E10       29.82F
WASKISH        PTSUNNY   52  30  43 SE15      29.80F
CROOKSTON      FAIR      45  36  70 SE13      29.67S
$$
  *****  WEATHER ACROSS CENTRAL AND WEST MINNESOTA  *****

CITY           SKY/WX    TMP DP  RH WIND       PRES   REMARKS
BEMIDJI        FAIR      44  32  61 SE13      29.77F
PARK RAPIDS    FAIR      49  32  52 SE13      29.76F
WADENA         FAIR      52  41  66 SE18      29.75S
DETROIT LAKES  FAIR      50  37  62 SE18G25   29.71F
MOORHEAD       FAIR      55  45  67 SE16      29.65S
FERGUS FALLS   FAIR      55  45  67 SE17      29.71F
ELBOW LAKE     FAIR      54  45  70 SE15G24   29.70S
MORRIS MN      FAIR      55  50  82 SE22G28   29.69F
STAPLES        FAIR      54  36  50 SE12G17   29.78S
WHEATON        FAIR      55  48  76 SE22G30   29.67F
$$
  *****  WEATHER ELSEWHERE ACROSS MINNESOTA  *****

CITY           SKY/WX    TMP DP  RH WIND       PRES   REMARKS
DULUTH         FAIR      41  31  67 E12       29.95R
INTRNTL FALLS  PTSUNNY   44  30  57 E10       29.89F
ELY            FAIR      46  28  49 SE9       29.95R
CLOQUET        FAIR      43  28  56 E10       29.94S
BRAINERD       FAIR      51  35  54 E7        29.83F
HIBBING        FAIR      46  28  49 SE14      29.91S
ALEXANDRIA     FAIR      52  43  71 SE20G29   29.76F
SAINT CLOUD    FAIR      57  40  52 SE16      29.82F
MINNEAPOLIS    CLOUDY    58  40  51 SE15      29.88F
$$

  *****  WEATHER ACROSS SOUTH DAKOTA  *****

CITY           SKY/WX    TMP DP  RH WIND       PRES   REMARKS
SIOUX FALLS    PTSUNNY   62  51  67 S18G29    29.70F
BROOKINGS      FAIR      61  49  64 S23       29.66F
WATERTOWN      FAIR      57  48  72 S21G30    29.63F
HURON          FAIR      62  49  62 S14G23    29.58F
SISSETON         N/A     58  50  75 SE22G28   29.62F
ABERDEEN       FAIR      57  45  64 S20G28    29.56F
MITCHELL       FAIR      64  51  62 S23G33    29.62S
PIERRE         FAIR      66  37  34 S17       29.49F
MOBRIDGE       FAIR      47  37  68 SE12      29.48F
RAPID CITY     FAIR      69  32  25 S21       29.48S
$$

  *****  SOME WEATHER IN NEARBY STATES *****

CITY           SKY/WX    TMP DP  RH WIND       PRES   REMARKS
GLASGOW MT     CLOUDY    34  32  92 SE10      29.45R FOG
GREAT FALLS MT PTSUNNY   49  25  39 SW15      29.46S
CHEYENNE WY    FAIR      56  25  30 E8        29.61F
SCOTTSBLUFF NE FAIR      59  33  37 SE9       29.59F
OMAHA NE       CLOUDY    69  48  47 S18       29.81F
DES MOINES IA  CLOUDY    73  46  38 S18       29.89S
DAVENPORT IA   FAIR      70  37  29 S12       29.98F
CHICAGO IL     FAIR      68  31  25 VRB3      30.04R
EAU CLAIRE WI  FAIR      58  30  34 S14       29.95F
LA CROSSE WI   FAIR      63  36  36 S5        29.96F
$$

  *****  SOME NATIONAL WEATHER *****

CITY           SKY/WX    TMP DP  RH WIND       PRES   REMARKS
LA GUARDIA NY  FAIR      66  30  26 W15G22    29.81R
RALEIGH NC     FAIR      71  42  35 VRB6      29.97R
ATLANTA GA     FAIR      68  49  50 N16       30.08R
NEW ORLEANS LA PTSUNNY   78  68  71 S10       30.03S
OKLAHOMA CITY  PTSUNNY   72  59  63 S22G29    29.84R
ALBUQUERQUE NM PTSUNNY   51  30  44 SW8       29.83F
SALT LAKE CITY PTSUNNY   48  40  73 S12       29.71R
LOS ANGELES CA PTSUNNY   57  50  77 W9        29.98R
BOISE ID       FAIR      51  29  42 SW13      29.63F
SEATTLE WA     CLOUDY    46  40  79 S21G26    29.49R
$$

*** WEATHER ACROSS MANITOBA...SASKATCHEWAN AND ONTARIO ***
                ***ONTARIO***

CITY           SKY/WX    TMP DP  RH WIND       PRES   REMARKS
GERALDTON      MOSUNNY   36  25  64 SW3       30.06R
THUNDER BAY    PTSUNNY   39  30  70 E9        30.06R
SIOUX LOOKOUT  PTSUNNY   41  27  56 E6        29.96S
TORONTO        MOSUNNY   50  34  53 W20       29.94R
BIG TROUT LK   CLOUDY    25  21  86 SE3       30.08R
PICKLE LAKE    CLOUDY    30  23  74 SE5       30.04R
DRYDEN         MOSUNNY   39  28  65 E8        29.94S
KENORA         PTSUNNY   39  30  70 E10       29.87F
$$
                *** MANITOBA***

CITY           SKY/WX    TMP DP  RH WIND       PRES   REMARKS
BRANDON        PTSUNNY   32  30  93 E28G37    29.63F WCI  18
DAUPHIN        CLOUDY    32  28  86 E14G20    29.75F WCI  22
ISLAND LAKE    CLOUDY    23  16  74 SE5       30.02R WCI  17
PILOT MOUND      N/A     36  32  87 E15G21      N/A
THE PAS        CLOUDY    28  19  69 E14       29.87F WCI  17
THOMPSON       CLOUDY    21  16  79 E3        30.00R
WINNIPEG       PTSUNNY   39  30  70 E15       29.76F
LYNN LAKE      CLOUDY    23  21  93 SE6       29.93S WCI  16
CHURCHILL      FLURRIES  12   9  85 S8        30.11R WCI   1
GILLAM         CLOUDY    19  12  73 NE7       30.05F WCI  10
$$
                ***SASKATCHEWAN***

CITY           SKY/WX    TMP DP  RH WIND       PRES   REMARKS
ESTEVAN        CLOUDY    32  32 100 E18G26    29.51F FOG     WCI  20
KINDERSLEY     LGT RAIN  36  34  93 S10       29.40R
LLOYDMINSTER   CLOUDY    34  30  86 SE14      29.42S WCI  24
PRINCE ALBERT  CLOUDY    32  27  80 E20G28    29.62F WCI  20
REGINA         CLOUDY    36  32  87 E16G25    29.52S
YORKTON        CLOUDY    32  28  86 E21       29.64F WC


USA.gov is the U.S. government's official web portal to all federal, state and local government web resources and services.